Location: Bourg-d�Oueil
(42.8588°N, 0.4991°E)
Time: 14:40:51
(UTC+00:00)

Resurs 1-3 - Pass Details

Date: 16 June 2021
Orbit: 629 x 632 km, 97.9° (Epoch: 01 August)

Event Time Altitude Azimuth Distance (km) Brightness Sun altitude
Exits shadow 20:25:49 - 176° (S) 2,863 6.5 -7.6°
Reaches altitude 10° 20:27:55 10° 180° (S) 2,007 5.8 -7.9°
Maximum altitude 20:32:13 58° 259° (W) 743 4.2 -8.5°
Drops below altitude 10° 20:36:34 10° 339° (NNW) 2,024 7.4 -9.1°
Sets 20:38:49 0° 344° (NNW) 2,937 8.2 -9.4°
